Wind_Speed
21 22 20 19 20 22 24 23 23 22 22 21 21 20 19 17 13 12 13 13 10 12 11 11 9 11 11 10 8 8 8 8 8
18 23 20 20 22 24 25 24 23 24 22 21 21 22 20 17 15 16 15 12 13 12 10 11 11 12 11 11 11 9 10 10 8
13 19 16 17 20 24 25 25 24 22 22 22 21 20 20 18 17 17 16 13 14 14 10 12 9 11 12 12 13 11 11 11 10
12 15 15 16 18 22 24 23 23 23 22 22 23 21 21 19 18 17 15 13 14 15 13 12 12 12 12 13 14 13 12 12 10
4 5 10 13 13 15 19 23 22 23 22 22 23 22 21 20 19 17 17 15 13 12 11 12 12 13 13 13 15 15 15 14 13
4 13 11 7 11 10 12 18 21 21 21 21 21 21 21 21 20 19 18 17 15 14 12 12 12 13 15 15 14 16 17 16 15
2 5 14 11 6 9 14 13 17 18 18 19 19 19 20 20 21 21 19 18 17 16 14 13 12 12 12 12 12 12 13 14 15
3 5 5 0 11 7 5 5 8 7 11 13 15 17 19 20 19 19 19 19 18 17 16 15 14 13 12 12 12 13 14 15 14
1 6 6 8 6 12 12 9 2 4 7 7 12 15 18 16 18 19 20 19 20 19 18 17 16 15 15 14 14 14 16 15 13
10 13 4 10 12 9 7 10 10 11 9 9 12 13 18 19 17 21 20 20 19 19 19 18 17 17 16 16 15 18 16 15 13
8 9 9 9 3 6 5 8 10 16 18 13 13 12 14 17 13 17 19 20 24 23 20 20 17 16 16 16 14 19 20 19 17
5 5 6 6 6 4 4 6 8 16 16 12 10 10 14 15 9 16 19 22 18 19 16 12 11 10 10 11 11 15 14 14 12
4 4 4 7 7 5 5 7 8 8 14 10 10 10 11 8 7 18 21 18 21 21 21 19 14 8 5 7 7 12 13 15 12
4 5 6 7 8 7 7 8 3 7 7 11 9 10 4 6 9 14 11 14 18 18 20 19 20 17 13 10 7 9 10 11 16
5 4 5 7 7 8 8 5 1 3 8 6 3 3 7 5 3 7 14 14 12 7 14 18 16 14 8 5 4 7 5 5 9
3 4 4 6 7 7 9 7 3 10 5 5 8 10 15 15 10 10 6 6 7 10 11 13 9 11 13 8 5 5 4 5 12
4 5 6 6 6 8 10 10 9 9 8 11 14 17 14 12 14 11 8 9 9 9 10 9 9 8 10 9 9 8 7 7 8
3 4 6 8 8 9 10 12 11 9 10 11 14 13 11 11 11 10 10 9 9 8 7 7 11 9 7 5 6 5 8 8 8
4 5 5 6 7 8 10 12 12 12 11 12 14 14 12 12 12 11 11 13 13 11 10 9 11 11 7 7 7 7 8 7 8
5 5 5 5 6 7 8 9 11 11 11 12 13 14 13 12 12 10 12 12 12 14 13 11 11 9 9 11 7 9 10 9 9
Wind_Direction
203 216 204 199 191 195 194 195 197 194 195 198 197 204 211 214 212 214 221 213 221 215 218 212 207 214 213 214 217 215 219 226 232
197 208 214 196 189 197 193 194 198 198 197 201 205 209 212 219 217 218 221 219 214 224 234 224 217 216 222 226 223 221 220 226 230
220 190 215 199 195 197 195 195 197 201 201 201 203 208 211 215 217 219 226 222 222 227 221 237 244 231 224 220 225 224 222 224 226
188 193 205 206 200 200 196 197 198 199 203 203 203 208 211 215 217 222 227 225 224 227 232 233 227 226 231 229 227 223 225 234 242
184 165 182 212 205 212 205 199 201 200 200 204 208 208 210 213 216 221 224 226 229 229 221 223 226 232 232 232 230 230 228 234 247
204 174 184 184 198 199 217 210 207 202 203 205 206 209 211 214 218 223 228 227 228 229 232 234 230 226 230 235 236 237 235 234 239
317 207 180 205 233 203 211 219 222 208 208 209 209 210 213 217 220 222 226 227 228 229 231 234 235 237 243 240 236 231 223 230 235
202 152 90 149 198 181 195 196 211 212 221 224 221 219 222 223 225 227 227 225 225 227 227 229 228 232 231 232 238 242 236 236 236
68 149 155 158 133 171 179 179 157 196 224 227 242 240 238 238 237 232 229 228 222 222 226 227 230 233 234 233 238 240 239 239 243
5 16 216 187 187 209 231 233 232 254 261 277 255 246 246 239 240 240 237 235 234 227 229 230 231 236 239 239 239 245 243 246 244
19 15 8 7 27 193 236 229 234 249 248 261 256 248 251 239 241 253 251 243 231 231 235 231 229 235 239 238 243 246 249 250 243
38 18 2 341 343 335 326 292 260 260 217 230 244 246 256 243 248 258 254 244 228 215 213 215 221 221 234 234 235 256 248 242 238
37 32 19 1 5 354 340 325 309 259 200 195 230 220 240 252 255 265 253 239 211 204 202 219 215 219 220 239 244 260 251 233 225
45 15 8 16 17 10 345 338 346 87 146 161 215 216 159 215 218 221 219 218 218 211 201 202 208 215 226 240 244 264 267 239 218
53 41 13 16 17 8 4 0 52 109 80 87 150 177 199 200 218 253 248 244 218 203 190 184 177 170 159 182 212 228 254 225 225
54 64 52 37 21 26 26 30 96 100 76 92 115 118 106 106 109 110 95 130 125 129 146 143 130 111 122 108 113 118 173 189 162
41 43 50 55 50 49 43 47 77 110 122 122 114 116 110 114 123 128 118 125 123 138 130 124 128 122 109 113 102 89 98 136 167
93 57 56 60 57 57 54 66 69 87 117 136 123 117 111 116 123 126 132 123 116 119 120 138 129 110 118 117 115 127 133 130 144
121 112 107 89 76 70 61 56 57 67 93 110 113 109 108 115 118 125 126 125 117 115 123 131 135 124 123 107 103 111 128 132 143
120 127 118 107 106 105 97 79 68 70 84 95 101 104 107 108 107 111 118 128 126 119 113 114 125 125 137 132 146 157 150 141 142
Height
773 774 772 780 789 797 804 811 818 822 828 833 838 842 844 847 851 854 856 856 856 859 859 861 863 866 868 869 869 870 872 872 872
764 770 769 776 785 794 800 807 814 819 824 830 834 838 842 845 848 851 851 853 857 858 859 859 862 864 865 867 868 868 870 870 872
760 769 778 773 781 789 795 803 810 817 821 826 831 835 839 842 844 847 850 853 856 856 858 859 859 862 863 864 865 866 868 868 869
765 768 776 774 780 786 792 799 805 812 818 823 827 831 834 837 841 844 847 850 851 853 855 856 857 858 860 862 863 864 865 866 867
760 772 778 779 783 786 791 796 802 807 813 818 823 827 830 834 836 839 842 844 847 849 851 853 854 856 857 858 860 861 862 863 863
764 769 781 783 787 791 794 796 800 805 810 814 819 823 826 829 832 835 837 840 842 844 846 848 850 853 854 855 856 857 858 859 860
765 766 771 782 788 793 794 798 800 804 808 812 816 819 822 824 827 830 832 836 838 840 842 844 846 847 849 851 852 853 855 856 857
771 774 778 782 787 793 797 801 801 804 807 810 813 816 819 820 823 826 829 831 834 836 839 841 843 844 845 847 848 849 850 851 853
773 775 781 790 792 797 798 802 802 803 805 809 813 813 815 818 820 822 824 827 828 831 833 836 838 840 841 843 843 844 846 848 849
795 791 783 788 792 791 797 800 802 802 804 808 810 810 811 813 815 817 820 822 825 828 830 832 833 835 838 839 840 839 840 842 845
801 798 797 795 793 793 795 794 794 798 801 805 806 806 809 811 812 814 815 817 818 823 825 828 829 831 833 835 837 836 836 838 839
800 801 800 799 795 794 794 796 795 794 795 799 802 802 805 808 806 810 813 814 814 815 819 823 826 828 831 832 833 832 833 834 836
798 799 799 797 797 795 794 793 790 788 790 792 799 803 803 802 800 807 808 811 811 811 812 814 822 825 829 830 831 829 829 831 834
797 797 797 797 795 794 793 791 791 788 788 790 792 797 792 801 806 809 807 810 810 809 810 811 813 818 822 824 825 827 826 827 830
797 800 799 798 797 796 792 790 790 789 790 791 795 795 797 800 799 802 808 806 804 807 808 810 813 816 817 820 823 824 826 827 828
799 800 801 800 799 798 796 793 790 790 792 794 795 795 795 799 803 803 804 806 810 809 812 812 814 814 816 821 823 822 824 828 828
799 801 802 802 802 801 799 796 795 795 795 796 797 798 801 803 805 807 810 812 813 815 814 817 820 822 821 822 824 825 827 828 830
800 801 802 803 804 803 804 801 800 798 797 799 799 801 804 806 808 810 811 812 815 816 818 821 820 822 825 826 827 828 830 832 836
801 802 804 804 805 806 806 804 803 801 802 801 801 803 805 807 809 811 813 815 818 820 821 822 822 823 825 828 829 829 831 835 837
803 804 804 805 806 808 808 807 806 808 808 807 806 807 808 811 813 816 815 817 820 822 825 824 824 825 826 828 830 832 834 835 838